COSMOS 2251 DEB

Satellite information

Favourite Embed

Satellite Type and Status

DEBRISIN ORBIT

Key statistics

Satellite COSMOS 2251 DEB at a glance.

Uptime

11813

Days in orbit

Revolutions

≈ 14.3

Per day

Orbit

LEO

Low Earth Orbit

Inclination

74.0

Latest

Satellite identification and parameters

Extended collection of information and parameters for COSMOS 2251 DEB.

Object identification

Identified? True

Debris? True

Object name: COSMOS 2251 DEB

International designator: 1993-036BBJ

Object number (NORAD): 36459

Object ID (CCSDS): 36459

Country: COMMONWEALTH OF INDEPENDENT STATES (CIS)

Current information (Y/N): Y

RCS size: SMALL

Orbital parameters

Period: 101.02 minutes

Inclination: 74.0475 deg

SMA: 7185.097 km

Apoapsis: 892.603 km

Periapsis: 721.321 km

RAAN: 112.6124 deg

Eccentricy: 0.01191927

Argument of periapsis: 223.2205 deg

Mean anomaly: 135.9544 deg

Mean motion: 14.25455882 rev/day

Mean motion (dot): 0.00003862 rev/day2

B* drag term: 0.0015279215 1/REarth

Two-line elements (TLE)

Creation date: Oct. 11, 2025, 10:47 a.m.

Reference frame: TEME

Reference center: EARTH

Epoch: Oct. 11, 2025, 6:04 a.m. UTC

TLE line 0: 0 COSMOS 2251 DEB

TLE line 1: 1 36459U 93036BBJ 25284.25316764 .00003862 00000-0 15279-2 0 9998

TLE line 2: 2 36459 74.0475 112.6124 0119193 223.2205 135.9544 14.25455882 69913

Live tracking on map

Real-time ground track for satellite COSMOS 2251 DEB.

In-orbit conjunctions

A list of the most updated potential collisions computed for object COSMOS 2251 DEB.

Target Orbit TCA Probability of collision Miss distance Type
CZ-6A DEB LEO 2025-03-06 03:30:06 0.0001113754 136.0 (m) DEBRIS
SCOUT X-4 R/B LEO 2024-07-02 05:13:43 0.000538937 80.0 (m) ROCKET BODY

Associated space launch

Military communications satellite. Destroyed in a collision with Iridium 33.

COSMOS 2251 DEB was lifted into orbit during the mission ‘Kosmos-3M | Strela-2M 51’, on board a Kosmos-3M space rocket.

The launch took place on June 16, 1993, 4:17 a.m. from 132/1 (132L).

For more information about the launch, click the button.

Launch to space Kosmos-3M | Strela-2M 51
Kosmos-3M | Strela-2M 51

Agency: N/A

Status: Launch Successful

Launch date: June 16, 1993, 4:17 a.m. UTC

Rocket: Kosmos-3M

Launch pad: 132/1 (132L)

Location: Plesetsk Cosmodrome, Russian Federation

...

Latest news about this satellite

There are no fresh news available about this satellite. Check back as we update our databases every day.


Newsletter sign-up

Weekly statistics, charts and insights to help you stay on top of the space industry.